This demonstration page uses our WeatherBlox Daily Observations layout. Learn more.

Left ArrowRight Arrow

Hourly Observations for June 19, 2022

Temp ( °F °C ) Dew Point ( °F °C ) Humidity (%) Winds ( mph kmh ) Pressure ( in mb ) Visibility ( mi km ) Precip ( " mm )
12:15 am 00:15 Clear 64 18 45 7 49 49 NNW 16 26 30.02 1017 N/A 0.00 0.00
12:35 am 00:35 Clear 64 18 43 6 46 46 NNW 13 20 30.03 1017 10 16 0.00 0.00
12:55 am 00:55 Clear 63 17 43 6 49 49 NNW 12 19 30.05 1017 10 16 0.00 0.00
1:15 am 01:15 Clear 63 17 43 6 49 49 N 9 15 30.06 1018 10 16 0.00 0.00
1:35 am 01:35 Clear 63 17 45 7 52 52 NNW 7 11 30.06 1018 10 16 0.00 0.00
1:55 am 01:55 Clear 61 16 45 7 55 55 NNW 12 19 30.07 1018 10 16 0.00 0.00
2:15 am 02:15 Clear 61 16 43 6 52 52 N 9 15 30.07 1018 10 16 0.00 0.00
2:35 am 02:35 Clear 59 15 43 6 55 55 NNW 12 19 30.07 1018 10 16 0.00 0.00
2:55 am 02:55 Clear 61 16 41 5 48 48 NNW 13 20 30.07 1018 10 16 0.00 0.00
3:15 am 03:15 Clear 59 15 39 4 48 48 NNW 12 19 30.08 1019 10 16 0.00 0.00
3:35 am 03:35 Clear 59 15 41 5 51 51 NNW 9 15 30.08 1019 N/A 0.00 0.00
3:55 am 03:55 Clear 57 14 41 5 55 55 NW 8 13 30.08 1019 N/A 0.00 0.00
4:15 am 04:15 Clear 55 13 41 5 59 59 NW 8 13 30.08 1019 N/A 0.00 0.00
4:35 am 04:35 Clear 55 13 43 6 63 63 NW 10 17 30.08 1019 N/A 0.00 0.00
4:55 am 04:55 Clear 55 13 45 7 67 67 NW 12 19 30.09 1019 10 16 0.00 0.00
5:15 am 05:15 Clear 55 13 45 7 67 67 NW 9 15 30.09 1019 10 16 0.00 0.00
5:35 am 05:35 Clear 55 13 45 7 67 67 NW 8 13 30.10 1019 10 16 0.00 0.00
5:55 am 05:55 Sunny 55 13 45 7 67 67 WNW 9 15 30.10 1019 10 16 0.00 0.00
6:15 am 06:15 Sunny 55 13 46 8 72 72 WNW 9 15 30.11 1020 10 16 0.00 0.00
6:35 am 06:35 Sunny 55 13 46 8 72 72 WNW 9 15 30.12 1020 10 16 0.00 0.00
6:55 am 06:55 Sunny 55 13 46 8 72 72 WNW 10 17 30.12 1020 N/A 0.00 0.00
7:15 am 07:15 Sunny 57 14 46 8 67 67 NW 12 19 30.13 1020 N/A 0.00 0.00
7:35 am 07:35 Sunny 59 15 46 8 63 63 NW 14 22 30.13 1020 N/A 0.00 0.00
7:55 am 07:55 Sunny 61 16 46 8 59 59 NW 18 30 30.13 1020 10 16 0.00 0.00
8:15 am 08:15 Sunny 61 16 46 8 59 59 NW 17 28 30.14 1021 10 16 0.00 0.00
8:35 am 08:35 Sunny 61 16 46 8 59 59 NNW 13 20 30.15 1021 10 16 0.00 0.00
8:55 am 08:55 Sunny 63 17 46 8 56 56 NW 10 17 30.16 1021 10 16 0.00 0.00
9:15 am 09:15 Sunny 63 17 46 8 56 56 NNW 9 15 30.15 1021 10 16 0.00 0.00
9:35 am 09:35 Sunny 64 18 48 9 56 56 N 13 20 30.14 1021 10 16 0.00 0.00
9:55 am 09:55 Sunny 64 18 46 8 52 52 N 14 22 30.14 1021 10 16 0.00 0.00
10:15 am 10:15 Sunny 64 18 46 8 52 52 NW 15 24 30.14 1021 10 16 0.00 0.00
10:35 am 10:35 Sunny 68 20 45 7 43 43 NNW 22 35 30.14 1021 10 16 0.00 0.00
10:55 am 10:55 Sunny 68 20 45 7 43 43 NNW 14 22 30.14 1021 10 16 0.00 0.00
11:15 am 11:15 Sunny 68 20 46 8 46 46 NNW 14 22 30.13 1020 10 16 0.00 0.00
11:35 am 11:35 Sunny 68 20 45 7 43 43 NW 12 19 30.13 1020 10 16 0.00 0.00
11:55 am 11:55 Sunny 70 21 45 7 40 40 N 14 22 30.12 1020 10 16 0.00 0.00
12:15 pm 12:15 Sunny 70 21 46 8 43 43 NW 16 26 30.12 1020 10 16 0.00 0.00
12:35 pm 12:35 Sunny 70 21 45 7 40 40 NNW 15 24 30.11 1020 10 16 0.00 0.00
12:55 pm 12:55 Sunny 72 22 43 6 36 36 NNW 18 30 30.11 1020 10 16 0.00 0.00
1:15 pm 13:15 Sunny 72 22 45 7 38 38 N 17 28 30.10 1019 10 16 0.00 0.00
1:35 pm 13:35 Sunny 73 23 45 7 36 36 NNW 21 33 30.10 1019 10 16 0.00 0.00
1:55 pm 13:55 Sunny 73 23 43 6 33 33 NNW 16 26 30.09 1019 10 16 0.00 0.00
2:15 pm 14:15 Sunny 73 23 41 5 31 31 N 20 31 30.08 1019 10 16 0.00 0.00
2:35 pm 14:35 Sunny 75 24 43 6 31 31 NNW 17 28 30.09 1019 10 16 0.00 0.00
2:55 pm 14:55 Sunny 75 24 45 7 34 34 NW 21 33 30.09 1019 10 16 0.00 0.00
3:15 pm 15:15 Sunny 77 25 45 7 32 32 NNW 20 31 30.08 1019 10 16 0.00 0.00
3:35 pm 15:35 Sunny 75 24 43 6 31 31 N 20 31 30.08 1018 10 16 0.00 0.00
3:55 pm 15:55 Sunny 77 25 45 7 32 32 N 14 22 30.06 1018 10 16 0.00 0.00
4:15 pm 16:15 Sunny 77 25 45 7 32 32 NNW 22 35 30.06 1018 10 16 0.00 0.00
4:35 pm 16:35 Sunny 77 25 45 7 32 32 N 10 17 30.06 1018 10 16 0.00 0.00
4:55 pm 16:55 Sunny 77 25 43 6 30 30 N 21 33 30.06 1018 10 16 0.00 0.00
5:15 pm 17:15 Sunny 77 25 45 7 32 32 N 16 26 30.06 1018 10 16 0.00 0.00
5:35 pm 17:35 Sunny 77 25 43 6 30 30 N 18 30 30.05 1018 10 16 0.00 0.00
5:55 pm 17:55 Sunny 77 25 45 7 32 32 NNW 16 26 30.05 1018 10 16 0.00 0.00
6:15 pm 18:15 Sunny 77 25 45 7 32 32 NNW 14 22 30.05 1018 10 16 0.00 0.00
6:35 pm 18:35 Sunny 75 24 43 6 31 31 NNW 15 24 30.06 1018 10 16 0.00 0.00
6:55 pm 18:55 Sunny 75 24 43 6 31 31 N 13 20 30.06 1018 10 16 0.00 0.00
7:15 pm 19:15 Sunny 75 24 43 6 31 31 NNW 8 13 30.07 1018 10 16 0.00 0.00
7:35 pm 19:35 Sunny 73 23 45 7 36 36 NNW 9 15 30.07 1018 10 16 0.00 0.00
7:55 pm 19:55 Sunny 73 23 43 6 33 33 NNW 12 19 30.07 1018 10 16 0.00 0.00
8:15 pm 20:15 Sunny 72 22 43 6 36 36 NW 8 13 30.07 1018 10 16 0.00 0.00
8:35 pm 20:35 Sunny 70 21 45 7 40 40 NW 3 6 30.07 1018 10 16 0.00 0.00
8:55 pm 20:55 Clear 68 20 45 7 43 43 WNW 3 6 30.08 1019 10 16 0.00 0.00
9:15 pm 21:15 Clear 68 20 43 6 40 40 NW 5 7 30.09 1019 10 16 0.00 0.00
9:35 pm 21:35 Clear 64 18 45 7 49 49 NW 7 11 30.09 1019 10 16 0.00 0.00
9:55 pm 21:55 Clear 66 19 43 6 43 43 NNW 6 9 30.10 1019 10 16 0.00 0.00
10:15 pm 22:15 Clear 64 18 43 6 46 46 NW 3 6 30.11 1020 10 16 0.00 0.00
10:35 pm 22:35 Clear 68 20 41 5 38 38 NNW 3 6 30.11 1020 10 16 0.00 0.00
10:55 pm 22:55 Clear 64 18 43 6 46 46 NW 3 6 30.12 1020 10 16 0.00 0.00
11:15 pm 23:15 Clear 64 18 41 5 43 43 Calm 30.13 1020 10 16 0.00 0.00
11:35 pm 23:35 Clear 61 16 45 7 55 55 NW 3 6 30.14 1021 10 16 0.00 0.00
11:55 pm 23:55 Clear 63 17 43 6 49 49 Calm 30.15 1021 10 16 0.00 0.00

Powered by AerisWeather